SCOUT A DEB, 2580

Orbit data source: Space-Track

SCOUT A DEB, 2580 is space debris in LEO originally from a launch on Thu, 18 Aug 1966 UTC launched from the Air Force Western Test Range (AFWTR). Debris objects in space refer to the collection of defunct objects orbiting the Earth. Examples of debris include non-operational satellites, rocket bodies, and fragments generated from explosions, collisions, or faulty payload assembly.

Loading next visibility...
Identifier
2580, 1966-076C
Orbit
LEO
Country
Flag of USUS
Related business
Manufacturer
Unknown
Mission
Spacecraft
Bus & Motor
Unknown
Mass
Unknown
Launch date (UTC)
1966-08-18 (59 years ago)
Launch vehicle
Unknown
Launch site
Air Force Western Test Range (AFWTR)
Object type
Payload
Rocket body
Debris
Shape & HBR
Unknown
Radar Cross Section
Small (<0.1 m²)

Expand to show TLE details & history
Last TLE update: 12 hours ago

TLE from 12 hours ago
0 SCOUT A DEB
1 02580U 66076C   25261.73145561  .00000220  00000-0  19669-3 0  9996
2 02580  89.1434 311.3928 0096723  68.4698  69.0111 13.78588562954505
Epoch: 2025-09-18T17:33Z
TLE epoch observation values (Epoch: 2025-09-18T17:33:17.764Z)
Latitude
41.55854°
Longitude
-130.57559°
Altitude
950.151 km
Speed
7.393 km/s
True Right ascension
08h 42m 32s
True Declination
41° 23' 33"
Sunlit
Object was in daylight at epoch
Visualization orbit readout
Latitude
Unknown
Longitude
Unknown
Altitude
Unknown
Speed
Unknown
Apparent Right ascension
Unknown
Apparent Declination
Unknown
Sunlit
N/A
Visualization observer readout
Local Sidereal Time
22:25:17
Azimuth
Unknown
Elevation
Unknown
Doppler factor
Unknown
Orbital elements
Apogee altitude
1,036.941 km
Perigee altitude
894.873 km
Semi-major axis
7,344.044 km
Eccentricity
0.00967
Inclination
89.1434°
RAAN
311.3928°
Arg. of periapsis
68.4698°
True anomaly
70.05037°
Mean anomaly
69.0111°
Eccentric anomaly
69.53029°
Mean motion
3.44858 °/min
Orbital period
104.39 mins
BSTAR
0.00019669
Loading maneuver chart data...
Computing Atmospheric mass density...
Loading historical data...
Loading historical data...
Loading historical data...
Loading historical data...
Loading historical data...
Loading historical data...
Loading historical data...

Documentation

Showing up to 5 results
|